Time,TemperatureF,DewpointF,PressureIn,WindDirection,WindDirectionDegrees,WindSpeedMPH,WindSpeedGustMPH,Humidity,HourlyPrecipIn,Conditions,Clouds,dailyrainin,SoftwareType,DateUTC
2013-04-07 00:00:00,55.4,26.0,29.71,WNW,284,2.0,9.0,32,0.00,,,0.00,VWS V14.01,2013-04-07 04:00:00,
2013-04-07 00:05:00,55.7,26.3,29.70,SSW,193,3.0,6.0,32,0.00,,,0.00,VWS V14.01,2013-04-07 04:05:00,
2013-04-07 00:10:00,56.0,26.6,29.70,SSE,150,1.0,8.0,32,0.00,,,0.00,VWS V14.01,2013-04-07 04:10:00,
2013-04-07 00:15:00,56.2,26.8,29.70,South,173,3.0,8.0,32,0.00,,,0.00,VWS V14.01,2013-04-07 04:15:00,
2013-04-07 00:20:00,56.4,26.9,29.69,SSE,148,6.0,8.0,32,0.00,,,0.00,VWS V14.01,2013-04-07 04:20:00,
2013-04-07 00:25:00,56.5,27.0,29.69,SSE,156,2.0,8.0,32,0.00,,,0.00,VWS V14.01,2013-04-07 04:25:00,
2013-04-07 00:30:00,56.6,27.1,29.69,SSE,156,3.0,8.0,32,0.00,,,0.00,VWS V14.01,2013-04-07 04:30:00,
2013-04-07 00:35:00,56.7,27.2,29.69,South,169,2.0,8.0,32,0.00,,,0.00,VWS V14.01,2013-04-07 04:35:00,
2013-04-07 00:40:00,56.8,28.0,29.69,SSE,147,4.0,8.0,33,0.00,,,0.00,VWS V14.01,2013-04-07 04:40:00,
2013-04-07 00:45:00,56.9,28.1,29.68,SE,131,5.0,8.0,33,0.00,,,0.00,VWS V14.01,2013-04-07 04:45:00,
2013-04-07 00:50:00,57.0,28.2,29.68,South,177,2.0,8.0,33,0.00,,,0.00,VWS V14.01,2013-04-07 04:50:00,
2013-04-07 00:55:00,57.0,28.9,29.68,South,174,2.0,8.0,34,0.00,,,0.00,VWS V14.01,2013-04-07 04:55:00,
2013-04-07 01:00:00,56.9,30.9,29.69,SSW,200,2.0,9.0,37,0.00,,,0.00,VWS V14.01,2013-04-07 05:00:00,
2013-04-07 01:05:00,56.6,32.6,29.68,SSW,193,1.0,4.0,40,0.00,,,0.00,VWS V14.01,2013-04-07 05:05:00,
2013-04-07 01:10:00,56.3,32.9,29.67,South,174,3.0,6.0,41,0.00,,,0.00,VWS V14.01,2013-04-07 05:10:00,
2013-04-07 01:15:00,56.1,33.3,29.67,SSE,165,2.0,7.0,42,0.00,,,0.00,VWS V14.01,2013-04-07 05:15:00,
2013-04-07 01:20:00,56.4,33.6,29.66,SSE,148,4.0,7.0,42,0.00,,,0.00,VWS V14.01,2013-04-07 05:20:00,
2013-04-07 01:25:00,56.8,34.0,29.67,SSW,198,3.0,7.0,42,0.00,,,0.00,VWS V14.01,2013-04-07 05:25:00,
2013-04-07 01:30:00,57.1,33.6,29.67,South,175,4.0,7.0,41,0.00,,,0.00,VWS V14.01,2013-04-07 05:30:00,
2013-04-07 01:35:00,57.4,33.3,29.67,SSE,150,5.0,9.0,40,0.00,,,0.00,VWS V14.01,2013-04-07 05:35:00,
2013-04-07 01:40:00,57.7,33.6,29.66,SE,139,2.0,9.0,40,0.00,,,0.00,VWS V14.01,2013-04-07 05:40:00,
2013-04-07 01:45:00,57.9,33.1,29.66,SSW,210,1.0,9.0,39,0.00,,,0.00,VWS V14.01,2013-04-07 05:45:00,
2013-04-07 01:50:00,58.1,33.3,29.66,SSW,205,3.0,9.0,39,0.00,,,0.00,VWS V14.01,2013-04-07 05:50:00,
2013-04-07 01:55:00,58.2,33.4,29.65,SSE,167,1.0,9.0,39,0.00,,,0.00,VWS V14.01,2013-04-07 05:55:00,
2013-04-07 02:00:00,58.1,33.3,29.65,SE,143,3.0,9.0,39,0.00,,,0.00,VWS V14.01,2013-04-07 06:00:00,
2013-04-07 02:05:00,58.2,34.0,29.65,SSW,197,3.0,4.0,40,0.00,,,0.00,VWS V14.01,2013-04-07 06:05:00,
2013-04-07 02:10:00,58.4,34.2,29.65,South,187,5.0,6.0,40,0.00,,,0.00,VWS V14.01,2013-04-07 06:10:00,
2013-04-07 02:15:00,58.5,34.3,29.64,South,188,4.0,7.0,40,0.00,,,0.00,VWS V14.01,2013-04-07 06:15:00,
2013-04-07 02:20:00,58.5,34.3,29.64,SW,214,3.0,9.0,40,0.00,,,0.00,VWS V14.01,2013-04-07 06:20:00,
2013-04-07 02:25:00,58.3,34.7,29.63,South,181,2.0,9.0,41,0.00,,,0.00,VWS V14.01,2013-04-07 06:25:00,
2013-04-07 02:30:00,58.1,34.5,29.63,South,186,4.0,9.0,41,0.00,,,0.00,VWS V14.01,2013-04-07 06:30:00,
2013-04-07 02:35:00,58.2,35.2,29.62,SW,215,3.0,12.0,42,0.00,,,0.00,VWS V14.01,2013-04-07 06:35:00,
2013-04-07 02:40:00,58.2,35.2,29.62,SW,221,5.0,12.0,42,0.00,,,0.00,VWS V14.01,2013-04-07 06:40:00,
2013-04-07 02:45:00,58.1,35.2,29.62,SW,221,4.0,12.0,42,0.00,,,0.00,VWS V14.01,2013-04-07 06:45:00,
2013-04-07 02:50:00,58.1,35.7,29.61,SW,219,5.0,12.0,43,0.00,,,0.00,VWS V14.01,2013-04-07 06:50:00,
2013-04-07 02:55:00,58.1,35.7,29.61,SSW,198,5.0,12.0,43,0.00,,,0.00,VWS V14.01,2013-04-07 06:55:00,
2013-04-07 03:00:00,58.2,35.8,29.61,WSW,238,4.0,12.0,43,0.00,,,0.00,VWS V14.01,2013-04-07 07:00:00,
2013-04-07 03:05:00,58.4,36.0,29.61,SSW,201,3.0,9.0,43,0.00,,,0.00,VWS V14.01,2013-04-07 07:05:00,
2013-04-07 03:10:00,58.5,36.1,29.61,SSW,198,1.0,9.0,43,0.00,,,0.00,VWS V14.01,2013-04-07 07:10:00,
2013-04-07 03:15:00,58.2,36.4,29.60,SSW,198,5.0,9.0,44,0.00,,,0.00,VWS V14.01,2013-04-07 07:15:00,
2013-04-07 03:20:00,58.2,36.4,29.60,South,186,4.0,9.0,44,0.00,,,0.00,VWS V14.01,2013-04-07 07:20:00,
2013-04-07 03:25:00,58.1,36.9,29.60,SSW,197,3.0,9.0,45,0.00,,,0.00,VWS V14.01,2013-04-07 07:25:00,
2013-04-07 03:30:00,58.2,37.5,29.59,SW,230,4.0,9.0,46,0.00,,,0.00,VWS V14.01,2013-04-07 07:30:00,
2013-04-07 03:35:00,58.3,37.6,29.59,SSW,204,3.0,9.0,46,0.00,,,0.00,VWS V14.01,2013-04-07 07:35:00,
2013-04-07 03:40:00,58.8,38.1,29.59,SSW,195,5.0,10.0,46,0.00,,,0.00,VWS V14.01,2013-04-07 07:40:00,
2013-04-07 03:45:00,59.0,38.3,29.59,South,186,2.0,10.0,46,0.00,,,0.00,VWS V14.01,2013-04-07 07:45:00,
2013-04-07 03:50:00,59.2,38.5,29.59,SSW,194,7.0,12.0,46,0.00,,,0.00,VWS V14.01,2013-04-07 07:50:00,
2013-04-07 03:55:00,59.2,39.0,29.59,SSW,195,2.0,12.0,47,0.00,,,0.00,VWS V14.01,2013-04-07 07:55:00,
2013-04-07 04:00:00,59.2,39.5,29.59,South,176,2.0,12.0,48,0.00,,,0.00,VWS V14.01,2013-04-07 08:00:00,
2013-04-07 04:05:00,59.3,39.6,29.60,SSW,201,2.0,11.0,48,0.00,,,0.00,VWS V14.01,2013-04-07 08:05:00,
2013-04-07 04:10:00,59.3,39.6,29.59,SW,221,2.0,11.0,48,0.00,,,0.00,VWS V14.01,2013-04-07 08:10:00,
2013-04-07 04:15:00,59.3,40.2,29.59,SSW,208,5.0,11.0,49,0.00,,,0.00,VWS V14.01,2013-04-07 08:15:00,
2013-04-07 04:20:00,59.3,40.2,29.59,SW,226,3.0,11.0,49,0.00,,,0.00,VWS V14.01,2013-04-07 08:20:00,
2013-04-07 04:25:00,59.3,40.2,29.59,South,187,4.0,11.0,49,0.00,,,0.00,VWS V14.01,2013-04-07 08:25:00,
2013-04-07 04:30:00,59.2,40.1,29.59,SSW,211,4.0,11.0,49,0.00,,,0.00,VWS V14.01,2013-04-07 08:30:00,
2013-04-07 04:35:00,59.1,40.5,29.59,South,188,3.0,11.0,50,0.00,,,0.00,VWS V14.01,2013-04-07 08:35:00,
2013-04-07 04:40:00,59.0,40.4,29.59,SW,217,5.0,11.0,50,0.00,,,0.00,VWS V14.01,2013-04-07 08:40:00,
2013-04-07 04:45:00,58.8,40.7,29.59,SSW,210,2.0,11.0,51,0.00,,,0.00,VWS V14.01,2013-04-07 08:45:00,
2013-04-07 04:50:00,58.8,40.7,29.59,SSW,203,4.0,11.0,51,0.00,,,0.00,VWS V14.01,2013-04-07 08:50:00,
2013-04-07 04:55:00,58.8,40.7,29.58,SW,233,2.0,11.0,51,0.00,,,0.00,VWS V14.01,2013-04-07 08:55:00,
2013-04-07 05:00:00,59.2,41.1,29.58,SSW,207,4.0,11.0,51,0.00,,,0.00,VWS V14.01,2013-04-07 09:00:00,
2013-04-07 05:05:00,59.3,41.2,29.58,SSW,212,4.0,6.0,51,0.00,,,0.00,VWS V14.01,2013-04-07 09:05:00,
2013-04-07 05:10:00,59.3,41.7,29.58,SSW,211,2.0,10.0,52,0.00,,,0.00,VWS V14.01,2013-04-07 09:10:00,
2013-04-07 05:15:00,59.2,42.1,29.58,SW,214,2.0,10.0,53,0.00,,,0.00,VWS V14.01,2013-04-07 09:15:00,
2013-04-07 05:20:00,58.9,42.3,29.58,SW,219,5.0,10.0,54,0.00,,,0.00,VWS V14.01,2013-04-07 09:20:00,
2013-04-07 05:25:00,58.7,42.6,29.58,SSW,200,1.0,10.0,55,0.00,,,0.00,VWS V14.01,2013-04-07 09:25:00,
2013-04-07 05:30:00,58.4,42.8,29.58,SSW,211,6.0,10.0,56,0.00,,,0.00,VWS V14.01,2013-04-07 09:30:00,
2013-04-07 05:35:00,58.2,42.6,29.58,SW,219,7.0,10.0,56,0.00,,,0.00,VWS V14.01,2013-04-07 09:35:00,
2013-04-07 05:40:00,58.1,42.5,29.58,SW,219,3.0,10.0,56,0.00,,,0.00,VWS V14.01,2013-04-07 09:40:00,
2013-04-07 05:46:00,57.9,42.3,29.57,SSW,210,3.0,10.0,56,0.00,,,0.00,VWS V14.01,2013-04-07 09:46:00,
2013-04-07 05:51:00,57.8,42.2,29.58,SSW,194,3.0,10.0,56,0.00,,,0.00,VWS V14.01,2013-04-07 09:51:00,
2013-04-07 05:56:00,57.7,42.1,29.58,South,187,4.0,10.0,56,0.00,,,0.00,VWS V14.01,2013-04-07 09:56:00,
2013-04-07 06:01:00,57.6,42.0,29.58,SW,225,5.0,10.0,56,0.00,,,0.00,VWS V14.01,2013-04-07 10:01:00,
2013-04-07 06:06:00,57.6,42.0,29.58,SW,215,3.0,8.0,56,0.00,,,0.00,VWS V14.01,2013-04-07 10:06:00,
2013-04-07 06:11:00,57.7,42.1,29.58,SW,235,5.0,9.0,56,0.00,,,0.00,VWS V14.01,2013-04-07 10:11:00,
2013-04-07 06:16:00,57.6,42.0,29.58,SSW,207,4.0,9.0,56,0.00,,,0.00,VWS V14.01,2013-04-07 10:16:00,
2013-04-07 06:21:00,57.3,42.2,29.58,WSW,240,3.0,9.0,57,0.00,,,0.00,VWS V14.01,2013-04-07 10:21:00,
2013-04-07 06:26:00,57.2,42.1,29.59,SW,231,5.0,9.0,57,0.00,,,0.00,VWS V14.01,2013-04-07 10:26:00,
2013-04-07 06:31:00,57.0,41.9,29.59,SW,225,4.0,9.0,57,0.00,,,0.00,VWS V14.01,2013-04-07 10:31:00,
2013-04-07 06:36:00,56.9,42.3,29.59,SSW,201,3.0,9.0,58,0.00,,,0.00,VWS V14.01,2013-04-07 10:36:00,
2013-04-07 06:41:00,56.6,42.0,29.59,SSW,203,3.0,9.0,58,0.00,,,0.00,VWS V14.01,2013-04-07 10:41:00,
2013-04-07 06:46:00,56.4,42.3,29.59,SW,222,3.0,9.0,59,0.00,,,0.00,VWS V14.01,2013-04-07 10:46:00,
2013-04-07 06:52:00,56.3,42.2,29.59,SSW,210,4.0,9.0,59,0.00,,,0.00,VWS V14.01,2013-04-07 10:52:00,
2013-04-07 06:57:00,56.2,42.5,29.59,SSW,207,4.0,9.0,60,0.00,,,0.00,VWS V14.01,2013-04-07 10:57:00,
2013-04-07 07:02:00,56.2,42.5,29.59,SW,231,4.0,9.0,60,0.00,,,0.00,VWS V14.01,2013-04-07 11:02:00,
2013-04-07 07:07:00,56.3,42.6,29.59,SSW,198,5.0,6.0,60,0.00,,,0.00,VWS V14.01,2013-04-07 11:07:00,
2013-04-07 07:12:00,56.5,42.4,29.59,SW,215,4.0,8.0,59,0.00,,,0.00,VWS V14.01,2013-04-07 11:12:00,
2013-04-07 07:17:00,56.6,42.5,29.60,SSW,203,2.0,8.0,59,0.00,,,0.00,VWS V14.01,2013-04-07 11:17:00,
2013-04-07 07:22:00,56.8,42.6,29.60,SW,231,2.0,8.0,59,0.00,,,0.00,VWS V14.01,2013-04-07 11:22:00,
2013-04-07 07:27:00,56.9,42.7,29.60,SSW,212,7.0,8.0,59,0.00,,,0.00,VWS V14.01,2013-04-07 11:27:00,
2013-04-07 07:32:00,57.4,43.2,29.61,WNW,284,3.0,10.0,59,0.00,,,0.00,VWS V14.01,2013-04-07 11:32:00,
2013-04-07 07:37:00,57.5,43.3,29.61,South,191,5.0,10.0,59,0.00,,,0.00,VWS V14.01,2013-04-07 11:37:00,
2013-04-07 07:42:00,57.6,43.4,29.61,SW,231,4.0,10.0,59,0.00,,,0.00,VWS V14.01,2013-04-07 11:42:00,
2013-04-07 07:47:00,57.6,43.4,29.62,NW,311,4.0,10.0,59,0.00,,,0.00,VWS V14.01,2013-04-07 11:47:00,
2013-04-07 07:52:00,57.5,43.7,29.62,West,280,4.0,10.0,60,0.00,,,0.00,VWS V14.01,2013-04-07 11:52:00,
2013-04-07 07:57:00,57.6,43.8,29.62,South,184,1.0,10.0,60,0.00,,,0.00,VWS V14.01,2013-04-07 11:57:00,
2013-04-07 08:02:00,57.8,44.0,29.62,SW,226,2.0,3.0,60,0.00,,,0.00,VWS V14.01,2013-04-07 12:02:00,
2013-04-07 08:07:00,58.2,44.4,29.63,SW,235,3.0,5.0,60,0.00,,,0.00,VWS V14.01,2013-04-07 12:07:00,
2013-04-07 08:12:00,58.8,45.0,29.63,WSW,255,3.0,7.0,60,0.00,,,0.00,VWS V14.01,2013-04-07 12:12:00,
2013-04-07 08:17:00,59.5,45.2,29.63,West,259,3.0,8.0,59,0.00,,,0.00,VWS V14.01,2013-04-07 12:17:00,
2013-04-07 08:22:00,59.9,45.5,29.64,NW,325,3.0,13.0,59,0.00,,,0.00,VWS V14.01,2013-04-07 12:22:00,
2013-04-07 08:27:00,60.1,45.7,29.64,WSW,238,4.0,13.0,59,0.00,,,0.00,VWS V14.01,2013-04-07 12:27:00,
2013-04-07 08:32:00,60.0,45.7,29.64,WNW,297,6.0,13.0,59,0.00,,,0.00,VWS V14.01,2013-04-07 12:32:00,
2013-04-07 08:37:00,59.9,46.0,29.64,West,259,6.0,13.0,60,0.00,,,0.00,VWS V14.01,2013-04-07 12:37:00,
2013-04-07 08:42:00,59.8,45.9,29.65,SW,219,3.0,13.0,60,0.00,,,0.00,VWS V14.01,2013-04-07 12:42:00,
2013-04-07 08:48:00,59.7,46.2,29.65,SW,214,4.0,13.0,61,0.00,,,0.00,VWS V14.01,2013-04-07 12:48:00,
2013-04-07 08:53:00,59.5,46.1,29.65,SSW,201,2.0,13.0,61,0.00,,,0.00,VWS V14.01,2013-04-07 12:53:00,
2013-04-07 08:58:00,59.4,46.4,29.65,NW,326,3.0,13.0,62,0.00,,,0.00,VWS V14.01,2013-04-07 12:58:00,
2013-04-07 09:03:00,59.4,46.8,29.65,NW,323,8.0,8.0,63,0.00,,,0.00,VWS V14.01,2013-04-07 13:03:00,
2013-04-07 09:08:00,59.2,46.6,29.65,East,100,4.0,13.0,63,0.00,,,0.00,VWS V14.01,2013-04-07 13:08:00,
2013-04-07 09:13:00,59.1,47.0,29.66,WSW,240,2.0,13.0,64,0.00,,,0.00,VWS V14.01,2013-04-07 13:13:00,
2013-04-07 09:18:00,58.7,47.0,29.66,NW,304,9.0,13.0,65,0.00,,,0.00,VWS V14.01,2013-04-07 13:18:00,
2013-04-07 09:23:00,58.2,46.9,29.67,WSW,245,2.0,14.0,66,0.00,,,0.00,VWS V14.01,2013-04-07 13:23:00,
2013-04-07 09:28:00,58.2,47.3,29.67,WSW,238,4.0,14.0,67,0.00,,,0.00,VWS V14.01,2013-04-07 13:28:00,
2013-04-07 09:33:00,58.2,47.3,29.67,ESE,122,5.0,14.0,67,0.00,,,0.00,VWS V14.01,2013-04-07 13:33:00,
2013-04-07 09:38:00,58.3,47.4,29.67,SSW,203,4.0,14.0,67,0.00,,,0.00,VWS V14.01,2013-04-07 13:38:00,
2013-04-07 09:43:00,58.4,47.9,29.67,SW,219,4.0,14.0,68,0.00,,,0.00,VWS V14.01,2013-04-07 13:43:00,
2013-04-07 09:48:00,58.3,47.8,29.67,SW,225,4.0,14.0,68,0.00,,,0.00,VWS V14.01,2013-04-07 13:48:00,
2013-04-07 09:53:00,58.3,47.8,29.67,WSW,248,6.0,14.0,68,0.00,,,0.00,VWS V14.01,2013-04-07 13:53:00,
2013-04-07 09:58:00,58.2,46.9,29.67,SW,226,4.0,14.0,66,0.00,,,0.00,VWS V14.01,2013-04-07 13:58:00,
2013-04-07 10:03:00,58.0,47.5,29.67,West,260,2.0,6.0,68,0.00,,,0.00,VWS V14.01,2013-04-07 14:03:00,
2013-04-07 10:08:00,58.0,47.5,29.67,North,353,3.0,10.0,68,0.00,,,0.00,VWS V14.01,2013-04-07 14:08:00,
2013-04-07 10:13:00,58.3,47.8,29.67,NW,326,3.0,10.0,68,0.00,,,0.00,VWS V14.01,2013-04-07 14:13:00,
2013-04-07 10:18:00,58.3,47.0,29.68,WSW,256,8.0,12.0,66,0.00,,,0.00,VWS V14.01,2013-04-07 14:18:00,
2013-04-07 10:23:00,58.1,47.2,29.68,WSW,256,2.0,12.0,67,0.00,,,0.00,VWS V14.01,2013-04-07 14:23:00,
2013-04-07 10:28:00,58.4,47.5,29.68,WSW,248,8.0,12.0,67,0.00,,,0.00,VWS V14.01,2013-04-07 14:28:00,
2013-04-07 10:33:00,58.5,47.6,29.68,West,270,5.0,12.0,67,0.00,,,0.00,VWS V14.01,2013-04-07 14:33:00,
2013-04-07 10:38:00,58.9,47.6,29.68,SW,229,3.0,12.0,66,0.00,,,0.00,VWS V14.01,2013-04-07 14:38:00,
2013-04-07 10:43:00,59.0,47.7,29.69,NW,309,2.0,12.0,66,0.00,,,0.00,VWS V14.01,2013-04-07 14:43:00,
2013-04-07 10:48:00,59.0,48.1,29.69,South,172,2.0,12.0,67,0.00,,,0.00,VWS V14.01,2013-04-07 14:48:00,
2013-04-07 10:53:00,58.4,47.9,29.69,North,5,3.0,13.0,68,0.00,,,0.00,VWS V14.01,2013-04-07 14:53:00,
2013-04-07 10:58:00,58.0,47.5,29.69,WNW,298,3.0,13.0,68,0.00,,,0.00,VWS V14.01,2013-04-07 14:58:00,
2013-04-07 11:03:00,57.8,47.3,29.70,WSW,242,6.0,6.0,68,0.00,,,0.00,VWS V14.01,2013-04-07 15:03:00,
2013-04-07 11:08:00,57.8,47.7,29.70,WNW,283,3.0,10.0,69,0.00,,,0.00,VWS V14.01,2013-04-07 15:08:00,
2013-04-07 11:13:00,58.2,48.1,29.70,WNW,295,2.0,10.0,69,0.00,,,0.00,VWS V14.01,2013-04-07 15:13:00,
2013-04-07 11:18:00,58.8,47.5,29.71,NW,319,4.0,10.0,66,0.00,,,0.00,VWS V14.01,2013-04-07 15:18:00,
2013-04-07 11:23:00,58.5,47.6,29.71,WSW,238,3.0,11.0,67,0.00,,,0.00,VWS V14.01,2013-04-07 15:23:00,
2013-04-07 11:28:00,58.8,47.9,29.71,West,260,2.0,11.0,67,0.00,,,0.00,VWS V14.01,2013-04-07 15:28:00,
2013-04-07 11:33:00,58.6,47.3,29.71,West,264,3.0,11.0,66,0.00,,,0.00,VWS V14.01,2013-04-07 15:33:00,
2013-04-07 11:38:00,58.9,47.6,29.71,South,177,1.0,11.0,66,0.00,,,0.00,VWS V14.01,2013-04-07 15:38:00,
2013-04-07 11:43:00,58.7,47.0,29.72,NW,320,3.0,12.0,65,0.00,,,0.00,VWS V14.01,2013-04-07 15:43:00,
2013-04-07 11:48:00,58.9,47.2,29.72,SW,225,5.0,12.0,65,0.00,,,0.00,VWS V14.01,2013-04-07 15:48:00,
2013-04-07 11:53:00,58.8,47.1,29.72,NNW,347,1.0,16.0,65,0.00,,,0.00,VWS V14.01,2013-04-07 15:53:00,
2013-04-07 11:58:00,59.2,46.2,29.72,West,277,3.0,16.0,62,0.00,,,0.00,VWS V14.01,2013-04-07 15:58:00,
2013-04-07 12:03:00,59.3,45.9,29.72,SW,232,3.0,6.0,61,0.00,,,0.00,VWS V14.01,2013-04-07 16:03:00,
2013-04-07 12:08:00,59.3,45.9,29.72,West,263,5.0,10.0,61,0.00,,,0.00,VWS V14.01,2013-04-07 16:08:00,
2013-04-07 12:13:00,59.4,45.5,29.73,NW,319,4.0,10.0,60,0.00,,,0.00,VWS V14.01,2013-04-07 16:13:00,
2013-04-07 12:18:00,59.6,45.3,29.73,WSW,238,3.0,10.0,59,0.00,,,0.00,VWS V14.01,2013-04-07 16:18:00,
2013-04-07 12:23:00,59.8,45.9,29.73,SW,215,3.0,10.0,60,0.00,,,0.00,VWS V14.01,2013-04-07 16:23:00,
2013-04-07 12:28:00,60.3,45.5,29.72,SW,229,5.0,10.0,58,0.00,,,0.00,VWS V14.01,2013-04-07 16:28:00,
2013-04-07 12:33:00,60.3,44.6,29.73,WSW,250,4.0,12.0,56,0.00,,,0.00,VWS V14.01,2013-04-07 16:33:00,
2013-04-07 12:38:00,60.1,44.8,29.73,West,280,2.0,15.0,57,0.00,,,0.00,VWS V14.01,2013-04-07 16:38:00,
2013-04-07 12:43:00,60.6,44.8,29.73,WSW,246,2.0,15.0,56,0.00,,,0.00,VWS V14.01,2013-04-07 16:43:00,
2013-04-07 12:48:00,60.6,45.3,29.73,NNW,338,3.0,15.0,57,0.00,,,0.00,VWS V14.01,2013-04-07 16:48:00,
2013-04-07 12:53:00,60.6,45.8,29.73,WSW,245,4.0,15.0,58,0.00,,,0.00,VWS V14.01,2013-04-07 16:53:00,
2013-04-07 12:58:00,60.7,45.8,29.74,NW,326,2.0,15.0,58,0.00,,,0.00,VWS V14.01,2013-04-07 16:58:00,
2013-04-07 13:03:00,61.2,45.9,29.73,WSW,238,3.0,12.0,57,0.00,,,0.00,VWS V14.01,2013-04-07 17:03:00,
2013-04-07 13:08:00,61.3,46.0,29.73,WNW,293,4.0,12.0,57,0.00,,,0.00,VWS V14.01,2013-04-07 17:08:00,
2013-04-07 13:13:00,62.0,45.7,29.74,West,281,4.0,12.0,55,0.00,,,0.00,VWS V14.01,2013-04-07 17:13:00,
2013-04-07 13:18:00,62.3,46.0,29.74,NW,313,5.0,15.0,55,0.00,,,0.00,VWS V14.01,2013-04-07 17:18:00,
2013-04-07 13:23:00,62.3,45.5,29.74,SW,214,1.0,15.0,54,0.00,,,0.00,VWS V14.01,2013-04-07 17:23:00,
2013-04-07 13:28:00,61.7,45.4,29.74,WSW,255,2.0,15.0,55,0.00,,,0.00,VWS V14.01,2013-04-07 17:28:00,
2013-04-07 13:33:00,62.1,45.3,29.74,SW,233,3.0,15.0,54,0.00,,,0.00,VWS V14.01,2013-04-07 17:33:00,
2013-04-07 13:38:00,62.0,45.2,29.74,WSW,238,3.0,15.0,54,0.00,,,0.00,VWS V14.01,2013-04-07 17:38:00,
2013-04-07 13:43:00,62.6,46.2,29.75,WNW,293,3.0,15.0,55,0.00,,,0.00,VWS V14.01,2013-04-07 17:43:00,
2013-04-07 13:48:00,62.5,45.2,29.75,NNW,343,1.0,15.0,53,0.00,,,0.00,VWS V14.01,2013-04-07 17:48:00,
2013-04-07 13:54:00,62.8,46.9,29.75,North,352,7.0,15.0,56,0.00,,,0.00,VWS V14.01,2013-04-07 17:54:00,
2013-04-07 13:59:00,63.2,45.3,29.75,West,260,6.0,15.0,52,0.00,,,0.00,VWS V14.01,2013-04-07 17:59:00,
2013-04-07 14:04:00,63.4,45.5,29.75,SSW,195,0.0,10.0,52,0.00,,,0.00,VWS V14.01,2013-04-07 18:04:00,
2013-04-07 14:09:00,63.1,44.2,29.75,NNW,338,11.0,17.0,50,0.00,,,0.00,VWS V14.01,2013-04-07 18:09:00,
2013-04-07 14:14:00,63.1,44.2,29.76,SW,221,3.0,17.0,50,0.00,,,0.00,VWS V14.01,2013-04-07 18:14:00,
2013-04-07 14:19:00,63.4,45.0,29.76,NW,315,9.0,17.0,51,0.00,,,0.00,VWS V14.01,2013-04-07 18:19:00,
2013-04-07 14:24:00,63.5,45.1,29.76,SSW,200,3.0,17.0,51,0.00,,,0.00,VWS V14.01,2013-04-07 18:24:00,
2013-04-07 14:29:00,63.6,45.2,29.76,South,184,1.0,17.0,51,0.00,,,0.00,VWS V14.01,2013-04-07 18:29:00,
2013-04-07 14:34:00,63.9,44.9,29.76,NNW,333,4.0,17.0,50,0.00,,,0.00,VWS V14.01,2013-04-07 18:34:00,
2013-04-07 14:39:00,63.7,45.2,29.76,SW,233,3.0,17.0,51,0.00,,,0.00,VWS V14.01,2013-04-07 18:39:00,
2013-04-07 14:44:00,63.7,44.7,29.76,SSW,203,2.0,17.0,50,0.00,,,0.00,VWS V14.01,2013-04-07 18:44:00,
2013-04-07 14:49:00,64.0,46.0,29.76,NNW,338,4.0,17.0,52,0.00,,,0.00,VWS V14.01,2013-04-07 18:49:00,
2013-04-07 14:54:00,64.1,45.6,29.76,WSW,257,3.0,17.0,51,0.00,,,0.00,VWS V14.01,2013-04-07 18:54:00,
2013-04-07 15:00:00,64.4,45.4,29.76,SSE,167,2.0,17.0,50,0.00,,,0.00,VWS V14.01,2013-04-07 19:00:00,
2013-04-07 15:05:00,64.4,45.4,29.76,SW,218,4.0,4.0,50,0.00,,,0.00,VWS V14.01,2013-04-07 19:05:00,
2013-04-07 15:10:00,64.4,44.8,29.77,WSW,240,3.0,7.0,49,0.00,,,0.00,VWS V14.01,2013-04-07 19:10:00,
2013-04-07 15:15:00,64.3,45.3,29.77,SSW,205,6.0,10.0,50,0.00,,,0.00,VWS V14.01,2013-04-07 19:15:00,
2013-04-07 15:20:00,64.5,44.9,29.77,SW,224,4.0,10.0,49,0.00,,,0.00,VWS V14.01,2013-04-07 19:20:00,
2013-04-07 15:25:00,64.7,45.1,29.77,NW,322,3.0,11.0,49,0.00,,,0.00,VWS V14.01,2013-04-07 19:25:00,
2013-04-07 15:30:00,64.4,44.3,29.77,WSW,256,3.0,11.0,48,0.00,,,0.00,VWS V14.01,2013-04-07 19:30:00,
2013-04-07 15:35:00,64.4,44.3,29.77,West,270,2.0,11.0,48,0.00,,,0.00,VWS V14.01,2013-04-07 19:35:00,
2013-04-07 15:40:00,64.6,43.9,29.78,WSW,240,1.0,11.0,47,0.00,,,0.00,VWS V14.01,2013-04-07 19:40:00,
2013-04-07 15:45:00,64.6,43.4,29.77,WNW,295,4.0,11.0,46,0.00,,,0.00,VWS V14.01,2013-04-07 19:45:00,
2013-04-07 15:50:00,64.3,43.7,29.78,WNW,283,2.0,11.0,47,0.00,,,0.00,VWS V14.01,2013-04-07 19:50:00,
2013-04-07 15:55:00,64.5,43.8,29.78,West,264,6.0,11.0,47,0.00,,,0.00,VWS V14.01,2013-04-07 19:55:00,
2013-04-07 16:00:00,64.5,42.7,29.78,SW,233,3.0,11.0,45,0.00,,,0.00,VWS V14.01,2013-04-07 20:00:00,
2013-04-07 16:05:00,64.8,44.1,29.78,NW,307,5.0,7.0,47,0.00,,,0.00,VWS V14.01,2013-04-07 20:05:00,
2013-04-07 16:10:00,64.9,43.1,29.78,SSW,198,5.0,9.0,45,0.00,,,0.00,VWS V14.01,2013-04-07 20:10:00,
2013-04-07 16:15:00,64.9,42.5,29.78,WSW,255,3.0,10.0,44,0.00,,,0.00,VWS V14.01,2013-04-07 20:15:00,
2013-04-07 16:20:00,64.9,42.5,29.78,West,281,1.0,10.0,44,0.00,,,0.00,VWS V14.01,2013-04-07 20:20:00,
2013-04-07 16:25:00,64.8,42.4,29.78,North,354,4.0,11.0,44,0.00,,,0.00,VWS V14.01,2013-04-07 20:25:00,
2013-04-07 16:30:00,64.9,43.1,29.79,NNW,340,3.0,11.0,45,0.00,,,0.00,VWS V14.01,2013-04-07 20:30:00,
2013-04-07 16:35:00,65.0,42.6,29.79,NNW,328,1.0,11.0,44,0.00,,,0.00,VWS V14.01,2013-04-07 20:35:00,
2013-04-07 16:40:00,65.4,42.9,29.79,NE,39,3.0,11.0,44,0.00,,,0.00,VWS V14.01,2013-04-07 20:40:00,
2013-04-07 16:45:00,65.4,42.9,29.79,SE,131,2.0,11.0,44,0.00,,,0.00,VWS V14.01,2013-04-07 20:45:00,
2013-04-07 16:50:00,65.7,43.2,29.80,NNW,327,0.0,11.0,44,0.00,,,0.00,VWS V14.01,2013-04-07 20:50:00,
2013-04-07 16:55:00,65.8,42.7,29.80,SW,231,2.0,11.0,43,0.00,,,0.00,VWS V14.01,2013-04-07 20:55:00,
2013-04-07 17:00:00,65.5,41.8,29.80,SW,215,1.0,11.0,42,0.00,,,0.00,VWS V14.01,2013-04-07 21:00:00,
2013-04-07 17:05:00,65.5,41.8,29.80,NW,312,3.0,6.0,42,0.00,,,0.00,VWS V14.01,2013-04-07 21:05:00,
2013-04-07 17:10:00,65.1,41.5,29.80,NNE,32,1.0,11.0,42,0.00,,,0.00,VWS V14.01,2013-04-07 21:10:00,
2013-04-07 17:15:00,65.1,42.1,29.80,SW,233,3.0,11.0,43,0.00,,,0.00,VWS V14.01,2013-04-07 21:15:00,
2013-04-07 17:20:00,65.1,41.5,29.80,NNE,18,0.0,11.0,42,0.00,,,0.00,VWS V14.01,2013-04-07 21:20:00,
2013-04-07 17:25:00,65.0,42.0,29.81,WNW,295,5.0,11.0,43,0.00,,,0.00,VWS V14.01,2013-04-07 21:25:00,
2013-04-07 17:30:00,64.9,41.3,29.81,SW,229,3.0,11.0,42,0.00,,,0.00,VWS V14.01,2013-04-07 21:30:00,
2013-04-07 17:35:00,65.0,42.0,29.81,WSW,256,5.0,11.0,43,0.00,,,0.00,VWS V14.01,2013-04-07 21:35:00,
2013-04-07 17:40:00,65.1,41.5,29.81,NNW,344,3.0,11.0,42,0.00,,,0.00,VWS V14.01,2013-04-07 21:40:00,
2013-04-07 17:45:00,65.1,40.8,29.81,NW,306,3.0,11.0,41,0.00,,,0.00,VWS V14.01,2013-04-07 21:45:00,
2013-04-07 17:50:00,64.6,41.0,29.81,West,273,1.0,11.0,42,0.00,,,0.00,VWS V14.01,2013-04-07 21:50:00,
2013-04-07 17:55:00,64.1,40.6,29.81,SW,236,3.0,11.0,42,0.00,,,0.00,VWS V14.01,2013-04-07 21:55:00,
2013-04-07 18:00:00,63.5,40.6,29.81,SW,217,1.0,11.0,43,0.00,,,0.00,VWS V14.01,2013-04-07 22:00:00,
2013-04-07 18:05:00,63.0,40.2,29.82,South,181,1.0,7.0,43,0.00,,,0.00,VWS V14.01,2013-04-07 22:05:00,
2013-04-07 18:10:00,62.8,40.6,29.82,NW,316,1.0,8.0,44,0.00,,,0.00,VWS V14.01,2013-04-07 22:10:00,
2013-04-07 18:15:00,62.4,40.2,29.81,WNW,294,2.0,8.0,44,0.00,,,0.00,VWS V14.01,2013-04-07 22:15:00,
2013-04-07 18:20:00,62.0,40.4,29.82,West,276,1.0,8.0,45,0.00,,,0.00,VWS V14.01,2013-04-07 22:20:00,
2013-04-07 18:25:00,61.9,40.9,29.82,SSW,212,0.0,8.0,46,0.00,,,0.00,VWS V14.01,2013-04-07 22:25:00,
2013-04-07 18:30:00,61.8,40.3,29.82,NNW,342,5.0,8.0,45,0.00,,,0.00,VWS V14.01,2013-04-07 22:30:00,
2013-04-07 18:35:00,61.8,40.8,29.82,SW,224,0.0,8.0,46,0.00,,,0.00,VWS V14.01,2013-04-07 22:35:00,
2013-04-07 18:40:00,61.7,40.2,29.82,NW,311,5.0,8.0,45,0.00,,,0.00,VWS V14.01,2013-04-07 22:40:00,
2013-04-07 18:45:00,61.7,40.2,29.82,WSW,242,0.0,8.0,45,0.00,,,0.00,VWS V14.01,2013-04-07 22:45:00,
2013-04-07 18:50:00,61.6,40.1,29.82,North,353,2.0,8.0,45,0.00,,,0.00,VWS V14.01,2013-04-07 22:50:00,
2013-04-07 18:55:00,61.3,39.8,29.82,NNW,343,0.0,8.0,45,0.00,,,0.00,VWS V14.01,2013-04-07 22:55:00,
2013-04-07 19:01:00,60.9,40.0,29.82,NW,317,0.0,8.0,46,0.00,,,0.00,VWS V14.01,2013-04-07 23:01:00,
2013-04-07 19:06:00,60.5,39.6,29.82,WSW,249,2.0,4.0,46,0.00,,,0.00,VWS V14.01,2013-04-07 23:06:00,
2013-04-07 19:11:00,60.1,39.8,29.83,WNW,298,0.0,4.0,47,0.00,,,0.00,VWS V14.01,2013-04-07 23:11:00,
2013-04-07 19:16:00,59.8,39.5,29.82,NW,321,0.0,4.0,47,0.00,,,0.00,VWS V14.01,2013-04-07 23:16:00,
2013-04-07 19:21:00,59.6,39.9,29.83,WSW,246,0.0,4.0,48,0.00,,,0.00,VWS V14.01,2013-04-07 23:21:00,
2013-04-07 19:26:00,59.3,39.6,29.83,NW,326,0.0,4.0,48,0.00,,,0.00,VWS V14.01,2013-04-07 23:26:00,
2013-04-07 19:31:00,59.1,40.0,29.83,North,349,0.0,4.0,49,0.00,,,0.00,VWS V14.01,2013-04-07 23:31:00,
2013-04-07 19:36:00,58.8,39.7,29.83,WNW,285,0.0,4.0,49,0.00,,,0.00,VWS V14.01,2013-04-07 23:36:00,
2013-04-07 19:41:00,58.4,39.8,29.83,WNW,298,1.0,4.0,50,0.00,,,0.00,VWS V14.01,2013-04-07 23:41:00,
2013-04-07 19:46:00,58.1,39.6,29.83,NW,312,0.0,4.0,50,0.00,,,0.00,VWS V14.01,2013-04-07 23:46:00,
2013-04-07 19:51:00,57.7,40.2,29.83,North,359,0.0,4.0,52,0.00,,,0.00,VWS V14.01,2013-04-07 23:51:00,
2013-04-07 19:56:00,57.3,39.3,29.83,North,359,0.0,4.0,51,0.00,,,0.00,VWS V14.01,2013-04-07 23:56:00,
2013-04-07 20:01:00,56.9,39.0,29.83,North,359,0.0,4.0,51,0.00,,,0.00,VWS V14.01,2013-04-08 00:01:00,
2013-04-07 20:06:00,56.6,39.2,29.84,North,359,0.0,1.0,52,0.00,,,0.00,VWS V14.01,2013-04-08 00:06:00,
2013-04-07 20:11:00,56.2,39.3,29.83,North,359,0.0,1.0,53,0.00,,,0.00,VWS V14.01,2013-04-08 00:11:00,
2013-04-07 20:16:00,55.7,39.3,29.84,NW,312,0.0,3.0,54,0.00,,,0.00,VWS V14.01,2013-04-08 00:16:00,
2013-04-07 20:22:00,55.4,39.0,29.84,ESE,117,0.0,3.0,54,0.00,,,0.00,VWS V14.01,2013-04-08 00:22:00,
2013-04-07 20:27:00,55.0,39.2,29.84,ESE,117,0.0,3.0,55,0.00,,,0.00,VWS V14.01,2013-04-08 00:27:00,
2013-04-07 20:32:00,54.4,39.0,29.84,ESE,117,0.0,3.0,56,0.00,,,0.00,VWS V14.01,2013-04-08 00:32:00,
2013-04-07 20:37:00,53.9,39.0,29.84,ESE,119,0.0,3.0,57,0.00,,,0.00,VWS V14.01,2013-04-08 00:37:00,
2013-04-07 20:42:00,53.3,38.9,29.84,ESE,118,0.0,3.0,58,0.00,,,0.00,VWS V14.01,2013-04-08 00:42:00,
2013-04-07 20:47:00,52.9,39.0,29.84,ESE,119,0.0,3.0,59,0.00,,,0.00,VWS V14.01,2013-04-08 00:47:00,
2013-04-07 20:52:00,52.5,38.6,29.84,ESE,123,0.0,3.0,59,0.00,,,0.00,VWS V14.01,2013-04-08 00:52:00,
2013-04-07 20:57:00,52.2,38.3,29.84,South,183,0.0,3.0,59,0.00,,,0.00,VWS V14.01,2013-04-08 00:57:00,
2013-04-07 21:02:00,52.2,38.3,29.85,SE,135,0.0,3.0,59,0.00,,,0.00,VWS V14.01,2013-04-08 01:02:00,
2013-04-07 21:07:00,52.4,38.1,29.85,SE,136,0.0,1.0,58,0.00,,,0.00,VWS V14.01,2013-04-08 01:07:00,
2013-04-07 21:12:00,52.6,38.3,29.85,SE,136,0.0,1.0,58,0.00,,,0.00,VWS V14.01,2013-04-08 01:12:00,
2013-04-07 21:17:00,52.4,38.1,29.85,SE,135,0.0,1.0,58,0.00,,,0.00,VWS V14.01,2013-04-08 01:17:00,
2013-04-07 21:22:00,52.2,37.9,29.85,SE,135,0.0,1.0,58,0.00,,,0.00,VWS V14.01,2013-04-08 01:22:00,
2013-04-07 21:27:00,51.9,38.0,29.85,SE,135,0.0,1.0,59,0.00,,,0.00,VWS V14.01,2013-04-08 01:27:00,
2013-04-07 21:32:00,51.5,38.1,29.85,SE,135,0.0,1.0,60,0.00,,,0.00,VWS V14.01,2013-04-08 01:32:00,
2013-04-07 21:37:00,51.0,38.0,29.85,SE,136,0.0,1.0,61,0.00,,,0.00,VWS V14.01,2013-04-08 01:37:00,
2013-04-07 21:42:00,50.9,38.0,29.85,SE,135,0.0,1.0,61,0.00,,,0.00,VWS V14.01,2013-04-08 01:42:00,
2013-04-07 21:47:00,50.9,38.4,29.86,SE,135,0.0,1.0,62,0.00,,,0.00,VWS V14.01,2013-04-08 01:47:00,
2013-04-07 21:52:00,50.9,38.0,29.86,SE,135,0.0,1.0,61,0.00,,,0.00,VWS V14.01,2013-04-08 01:52:00,
2013-04-07 21:57:00,50.8,37.8,29.86,SE,136,0.0,1.0,61,0.00,,,0.00,VWS V14.01,2013-04-08 01:57:00,
2013-04-07 22:02:00,50.6,37.7,29.86,SE,136,0.0,0.0,61,0.00,,,0.00,VWS V14.01,2013-04-08 02:02:00,
2013-04-07 22:07:00,50.5,37.6,29.86,SE,136,0.0,0.0,61,0.00,,,0.00,VWS V14.01,2013-04-08 02:07:00,
2013-04-07 22:12:00,50.2,37.7,29.86,SE,135,0.0,0.0,62,0.00,,,0.00,VWS V14.01,2013-04-08 02:12:00,
2013-04-07 22:17:00,49.9,37.4,29.86,SE,136,0.0,0.0,62,0.00,,,0.00,VWS V14.01,2013-04-08 02:17:00,
2013-04-07 22:22:00,49.7,37.2,29.86,SE,136,0.0,0.0,62,0.00,,,0.00,VWS V14.01,2013-04-08 02:22:00,
2013-04-07 22:27:00,49.5,37.0,29.87,SE,135,0.0,0.0,62,0.00,,,0.00,VWS V14.01,2013-04-08 02:27:00,
2013-04-07 22:33:00,49.4,36.9,29.87,SE,135,0.0,0.0,62,0.00,,,0.00,VWS V14.01,2013-04-08 02:33:00,
2013-04-07 22:38:00,49.3,37.2,29.87,SE,135,0.0,0.0,63,0.00,,,0.00,VWS V14.01,2013-04-08 02:38:00,
2013-04-07 22:43:00,49.2,37.2,29.87,SE,136,0.0,0.0,63,0.00,,,0.00,VWS V14.01,2013-04-08 02:43:00,
2013-04-07 22:48:00,49.2,36.8,29.87,SE,136,0.0,0.0,62,0.00,,,0.00,VWS V14.01,2013-04-08 02:48:00,
2013-04-07 22:53:00,49.2,36.8,29.87,SE,134,0.0,0.0,62,0.00,,,0.00,VWS V14.01,2013-04-08 02:53:00,
2013-04-07 22:58:00,49.2,37.2,29.87,SE,135,0.0,0.0,63,0.00,,,0.00,VWS V14.01,2013-04-08 02:58:00,
2013-04-07 23:03:00,48.9,36.9,29.87,SE,135,0.0,0.0,63,0.00,,,0.00,VWS V14.01,2013-04-08 03:03:00,
2013-04-07 23:08:00,49.1,37.1,29.87,SE,136,0.0,1.0,63,0.00,,,0.00,VWS V14.01,2013-04-08 03:08:00,
2013-04-07 23:14:00,49.2,37.6,29.87,SE,134,0.0,1.0,64,0.00,,,0.00,VWS V14.01,2013-04-08 03:14:00,
2013-04-07 23:19:00,49.0,37.4,29.88,SE,134,0.0,1.0,64,0.00,,,0.00,VWS V14.01,2013-04-08 03:19:00,
2013-04-07 23:24:00,48.9,37.3,29.88,SE,135,0.0,1.0,64,0.00,,,0.00,VWS V14.01,2013-04-08 03:24:00,
2013-04-07 23:29:00,49.0,37.4,29.88,SE,134,0.0,1.0,64,0.00,,,0.00,VWS V14.01,2013-04-08 03:29:00,
2013-04-07 23:34:00,48.9,37.3,29.88,SE,133,0.0,1.0,64,0.00,,,0.00,VWS V14.01,2013-04-08 03:34:00,
2013-04-07 23:39:00,48.8,36.8,29.88,East,98,0.0,3.0,63,0.00,,,0.00,VWS V14.01,2013-04-08 03:39:00,
2013-04-07 23:44:00,48.7,36.7,29.88,East,98,1.0,3.0,63,0.00,,,0.00,VWS V14.01,2013-04-08 03:44:00,
2013-04-07 23:49:00,48.5,36.9,29.88,ESE,103,0.0,3.0,64,0.00,,,0.00,VWS V14.01,2013-04-08 03:49:00,
2013-04-07 23:54:00,48.3,37.1,29.88,ESE,103,0.0,3.0,65,0.00,,,0.00,VWS V14.01,2013-04-08 03:54:00,
2013-04-07 23:59:00,48.0,36.8,29.89,ESE,103,0.0,3.0,65,0.00,,,0.00,VWS V14.01,2013-04-08 03:59:00,